Wetterdaten: Dienstag, 29.10.2013
Datum Zeit Temperatur Luftfeuchte Luftdruck Regen Wind Richtung Richtung Taupunkt Windchill Windben
29.10.2013 00:00 10,6 C 77 % 1015,7 hPa 0,0 l/m 4,2 km/h (1 Bft) O-SO 112 6,7 C 10,8 C 7,1 km/h (2 Bft)
29.10.2013 00:05 10,5 C 77 % 1015,9 hPa 0,0 l/m 4,2 km/h (1 Bft) SO 135 6,6 C 11,0 C 3,7 km/h (1 Bft)
29.10.2013 00:10 10,5 C 78 % 1015,9 hPa 0,0 l/m 4,2 km/h (1 Bft) O-SO 112 6,8 C 11,0 C 5,8 km/h (2 Bft)
29.10.2013 00:15 10,5 C 78 % 1015,9 hPa 0,0 l/m 4,3 km/h (1 Bft) S-SO 157 6,8 C 11,0 C 9,3 km/h (2 Bft)
29.10.2013 00:20 10,5 C 78 % 1015,9 hPa 0,0 l/m 4,2 km/h (1 Bft) S-SW 202 6,8 C 11,1 C 3,9 km/h (1 Bft)
29.10.2013 00:25 10,6 C 78 % 1015,8 hPa 0,0 l/m 5,3 km/h (1 Bft) O 90 6,9 C 11,1 C 2,9 km/h (1 Bft)
29.10.2013 00:30 10,7 C 79 % 1015,8 hPa 0,0 l/m 5,3 km/h (1 Bft) O 90 7,2 C 11,1 C 10,9 km/h (2 Bft)
29.10.2013 00:35 10,7 C 79 % 1015,8 hPa 0,0 l/m 4,2 km/h (1 Bft) SO 135 7,2 C 11,1 C 6,0 km/h (2 Bft)
29.10.2013 00:40 10,7 C 79 % 1015,8 hPa 0,0 l/m 3,9 km/h (1 Bft) S 180 7,2 C 11,1 C 5,1 km/h (1 Bft)
29.10.2013 00:45 10,4 C 79 % 1015,9 hPa 0,0 l/m 3,9 km/h (1 Bft) S 180 6,9 C 11,0 C 8,2 km/h (2 Bft)
29.10.2013 00:50 10,5 C 79 % 1015,9 hPa 0,0 l/m 4,5 km/h (1 Bft) S-SO 157 7,0 C 11,0 C 7,4 km/h (2 Bft)
29.10.2013 00:55 10,7 C 79 % 1015,9 hPa 0,0 l/m 5,6 km/h (1 Bft) S 180 7,2 C 10,8 C 3,9 km/h (1 Bft)
29.10.2013 01:00 10,6 C 80 % 1015,9 hPa 0,0 l/m 4,7 km/h (1 Bft) O-SO 112 7,3 C 10,9 C 11,7 km/h (2 Bft)
29.10.2013 01:05 10,6 C 80 % 1016,0 hPa 0,0 l/m 4,3 km/h (1 Bft) S 180 7,3 C 11,0 C 10,0 km/h (2 Bft)
29.10.2013 01:10 10,6 C 80 % 1016,0 hPa 0,0 l/m 4,7 km/h (1 Bft) S-SO 157 7,3 C 11,1 C 4,3 km/h (1 Bft)
29.10.2013 01:15 10,7 C 80 % 1016,0 hPa 0,0 l/m 5,3 km/h (1 Bft) O-SO 112 7,4 C 11,1 C 5,3 km/h (1 Bft)
29.10.2013 01:20 10,9 C 80 % 1016,0 hPa 0,0 l/m 5,8 km/h (2 Bft) S 180 7,6 C 11,0 C 15,4 km/h (3 Bft)
29.10.2013 01:25 10,9 C 80 % 1016,1 hPa 0,0 l/m 6,0 km/h (2 Bft) NW 315 7,6 C 11,1 C 9,5 km/h (2 Bft)
29.10.2013 01:30 10,8 C 80 % 1016,1 hPa 0,0 l/m 6,1 km/h (2 Bft) S-SO 157 7,5 C 11,2 C 9,5 km/h (2 Bft)
29.10.2013 01:35 11,0 C 80 % 1016,1 hPa 0,0 l/m 5,3 km/h (1 Bft) SO 135 7,7 C 11,5 C 4,8 km/h (1 Bft)
29.10.2013 01:40 10,8 C 80 % 1016,1 hPa 0,0 l/m 4,7 km/h (1 Bft) S 180 7,5 C 11,7 C 3,4 km/h (1 Bft)
29.10.2013 01:45 11,1 C 80 % 1016,6 hPa 0,0 l/m 4,8 km/h (1 Bft) S-SW 202 7,8 C 11,7 C 9,7 km/h (2 Bft)
29.10.2013 01:50 11,3 C 80 % 1016,6 hPa 0,0 l/m 6,1 km/h (2 Bft) S 180 8,0 C 11,4 C 9,8 km/h (2 Bft)
29.10.2013 01:55 11,3 C 79 % 1016,6 hPa 0,0 l/m 7,2 km/h (2 Bft) S-SO 157 7,8 C 10,8 C 7,2 km/h (2 Bft)
29.10.2013 02:00 11,3 C 79 % 1016,6 hPa 0,0 l/m 8,4 km/h (2 Bft) S 180 7,8 C 10,0 C 14,5 km/h (3 Bft)
29.10.2013 02:05 11,4 C 79 % 1016,6 hPa 0,0 l/m 8,0 km/h (2 Bft) SO 135 7,9 C 10,2 C 11,4 km/h (2 Bft)
29.10.2013 02:10 11,4 C 79 % 1016,6 hPa 0,0 l/m 7,4 km/h (2 Bft) S 180 7,9 C 10,7 C 6,3 km/h (2 Bft)
29.10.2013 02:15 11,3 C 79 % 1016,6 hPa 0,0 l/m 6,9 km/h (2 Bft) S 180 7,8 C 11,3 C 6,3 km/h (2 Bft)
29.10.2013 02:20 11,4 C 79 % 1016,6 hPa 0,0 l/m 6,8 km/h (2 Bft) S 180 7,9 C 11,3 C 7,7 km/h (2 Bft)
29.10.2013 02:25 11,3 C 79 % 1016,5 hPa 0,0 l/m 6,4 km/h (2 Bft) S-SO 157 7,8 C 11,7 C 4,2 km/h (1 Bft)
29.10.2013 02:30 11,3 C 79 % 1016,5 hPa 0,0 l/m 6,3 km/h (2 Bft) S-SW 202 7,8 C 11,7 C 6,1 km/h (2 Bft)
29.10.2013 02:35 11,4 C 79 % 1016,5 hPa 0,0 l/m 5,5 km/h (1 Bft) S 180 7,9 C 11,9 C 7,1 km/h (2 Bft)
29.10.2013 02:40 11,4 C 79 % 1016,5 hPa 0,0 l/m 5,1 km/h (1 Bft) SO 135 7,9 C 11,9 C 5,6 km/h (1 Bft)
29.10.2013 02:45 11,4 C 79 % 1016,4 hPa 0,0 l/m 5,6 km/h (1 Bft) SW 225 7,9 C 11,8 C 4,2 km/h (1 Bft)
29.10.2013 02:50 11,2 C 79 % 1016,4 hPa 0,0 l/m 6,6 km/h (2 Bft) W-NW 292 7,7 C 11,5 C 9,7 km/h (2 Bft)
29.10.2013 02:54 10,5 C 79 % 1016,4 hPa 0,0 l/m 6,0 km/h (2 Bft) SW 225 7,0 C 11,1 C 6,8 km/h (2 Bft)
29.10.2013 02:55 10,5 C 79 % 1016,4 hPa 0,0 l/m 6,0 km/h (2 Bft) SW 225 7,0 C 11,1 C 6,8 km/h (2 Bft)
29.10.2013 03:00 10,3 C 80 % 1016,4 hPa 0,0 l/m 5,6 km/h (1 Bft) W-SW 247 7,0 C 10,7 C 6,9 km/h (2 Bft)
29.10.2013 03:05 10,1 C 80 % 1016,9 hPa 0,0 l/m 5,6 km/h (1 Bft) W-SW 247 6,8 C 10,4 C 4,3 km/h (1 Bft)
29.10.2013 03:10 9,9 C 81 % 1016,9 hPa 0,0 l/m 6,1 km/h (2 Bft) W 270 6,8 C 9,7 C 5,6 km/h (1 Bft)
29.10.2013 03:15 9,6 C 82 % 1016,9 hPa 0,0 l/m 5,6 km/h (1 Bft) W-NW 292 6,7 C 9,6 C 6,6 km/h (2 Bft)
29.10.2013 03:20 9,4 C 82 % 1016,9 hPa 0,0 l/m 5,3 km/h (1 Bft) W 270 6,5 C 9,5 C 7,2 km/h (2 Bft)
29.10.2013 03:25 9,3 C 82 % 1017,1 hPa 0,0 l/m 4,2 km/h (1 Bft) W-SW 247 6,4 C 9,6 C 6,4 km/h (2 Bft)
29.10.2013 03:30 9,2 C 83 % 1017,1 hPa 0,0 l/m 3,9 km/h (1 Bft) S 180 6,5 C 9,5 C 5,8 km/h (2 Bft)
29.10.2013 03:35 9,1 C 84 % 1017,1 hPa 0,0 l/m 4,3 km/h (1 Bft) S-SW 202 6,5 C 9,2 C 3,4 km/h (1 Bft)
29.10.2013 03:40 9,1 C 84 % 1017,1 hPa 0,0 l/m 4,2 km/h (1 Bft) W-SW 247 6,5 C 9,0 C 5,1 km/h (1 Bft)
29.10.2013 03:45 9,0 C 84 % 1017,3 hPa 0,0 l/m 6,4 km/h (2 Bft) S 180 6,4 C 8,2 C 18,5 km/h (3 Bft)
29.10.2013 03:50 8,9 C 84 % 1017,3 hPa 0,0 l/m 7,2 km/h (2 Bft) SW 225 6,3 C 7,2 C 6,1 km/h (2 Bft)
29.10.2013 03:55 8,8 C 84 % 1017,3 hPa 0,0 l/m 6,0 km/h (2 Bft) S 180 6,2 C 8,0 C 4,5 km/h (1 Bft)
29.10.2013 04:00 8,6 C 84 % 1017,3 hPa 0,0 l/m 5,5 km/h (1 Bft) S 180 6,1 C 8,0 C 6,6 km/h (2 Bft)
29.10.2013 04:05 8,2 C 84 % 1017,4 hPa 0,0 l/m 6,8 km/h (2 Bft) S-SO 157 5,7 C 7,0 C 6,3 km/h (2 Bft)
29.10.2013 04:10 8,1 C 84 % 1017,4 hPa 0,0 l/m 7,7 km/h (2 Bft) S-SO 157 5,6 C 5,6 C 7,2 km/h (2 Bft)
29.10.2013 04:15 7,9 C 85 % 1017,4 hPa 0,0 l/m 7,4 km/h (2 Bft) S 180 5,5 C 5,7 C 9,0 km/h (2 Bft)
29.10.2013 04:20 7,8 C 85 % 1017,4 hPa 0,0 l/m 7,1 km/h (2 Bft) SO 135 5,4 C 6,0 C 9,8 km/h (2 Bft)
29.10.2013 04:25 7,8 C 86 % 1017,4 hPa 0,0 l/m 5,6 km/h (1 Bft) SO 135 5,6 C 6,9 C 4,3 km/h (1 Bft)
29.10.2013 04:30 7,7 C 86 % 1017,4 hPa 0,0 l/m 5,0 km/h (1 Bft) O-NO 67 5,5 C 7,1 C 3,9 km/h (1 Bft)
29.10.2013 04:35 7,7 C 86 % 1017,4 hPa 0,0 l/m 4,3 km/h (1 Bft) S 180 5,5 C 7,3 C 5,8 km/h (2 Bft)
29.10.2013 04:40 7,6 C 86 % 1017,4 hPa 0,0 l/m 4,5 km/h (1 Bft) S 180 5,4 C 7,1 C 5,0 km/h (1 Bft)
29.10.2013 04:45 7,5 C 86 % 1017,4 hPa 0,0 l/m 5,1 km/h (1 Bft) S 180 5,3 C 6,8 C 5,3 km/h (1 Bft)
29.10.2013 04:50 7,5 C 87 % 1017,4 hPa 0,0 l/m 5,3 km/h (1 Bft) S-SO 157 5,5 C 6,8 C 6,8 km/h (2 Bft)
29.10.2013 04:55 7,4 C 87 % 1017,4 hPa 0,0 l/m 6,0 km/h (2 Bft) S 180 5,4 C 6,6 C 7,6 km/h (2 Bft)
29.10.2013 05:00 7,4 C 88 % 1017,4 hPa 0,0 l/m 6,0 km/h (2 Bft) S 180 5,5 C 6,4 C 5,8 km/h (2 Bft)
29.10.2013 05:05 7,3 C 88 % 1017,9 hPa 0,0 l/m 4,8 km/h (1 Bft) O-SO 112 5,4 C 6,8 C 5,6 km/h (1 Bft)
29.10.2013 05:10 7,3 C 88 % 1017,9 hPa 0,0 l/m 4,0 km/h (1 Bft) S-SW 202 5,4 C 7,0 C 6,8 km/h (2 Bft)
29.10.2013 05:15 7,3 C 88 % 1017,9 hPa 0,0 l/m 4,3 km/h (1 Bft) SO 135 5,4 C 6,9 C 5,6 km/h (1 Bft)
29.10.2013 05:20 7,3 C 89 % 1017,9 hPa 0,0 l/m 4,7 km/h (1 Bft) SO 135 5,6 C 6,8 C 6,0 km/h (2 Bft)
29.10.2013 05:25 7,3 C 89 % 1018,1 hPa 0,0 l/m 4,3 km/h (1 Bft) S 180 5,6 C 6,9 C 4,7 km/h (1 Bft)
29.10.2013 05:30 7,3 C 89 % 1018,1 hPa 0,0 l/m 4,3 km/h (1 Bft) SO 135 5,6 C 6,9 C 3,4 km/h (1 Bft)
29.10.2013 05:35 7,3 C 89 % 1018,1 hPa 0,0 l/m 3,5 km/h (1 Bft) S-SO 157 5,6 C 7,4 C 6,1 km/h (2 Bft)
29.10.2013 05:40 7,3 C 90 % 1018,1 hPa 0,0 l/m 3,9 km/h (1 Bft) S 180 5,8 C 7,2 C 6,4 km/h (2 Bft)
29.10.2013 05:45 7,4 C 90 % 1018,2 hPa 0,0 l/m 5,0 km/h (1 Bft) S-SO 157 5,9 C 6,8 C 8,5 km/h (2 Bft)
29.10.2013 05:50 7,4 C 90 % 1018,2 hPa 0,0 l/m 5,8 km/h (2 Bft) S-SO 157 5,9 C 6,7 C 9,8 km/h (2 Bft)
29.10.2013 05:55 7,4 C 90 % 1018,2 hPa 0,0 l/m 6,9 km/h (2 Bft) S 180 5,9 C 5,9 C 19,0 km/h (3 Bft)
29.10.2013 06:00 7,4 C 90 % 1018,2 hPa 0,0 l/m 6,8 km/h (2 Bft) S 180 5,9 C 6,0 C 7,1 km/h (2 Bft)
29.10.2013 06:05 7,4 C 90 % 1018,3 hPa 0,0 l/m 7,1 km/h (2 Bft) S 180 5,9 C 5,7 C 13,2 km/h (3 Bft)
29.10.2013 06:10 7,3 C 90 % 1018,3 hPa 0,0 l/m 7,1 km/h (2 Bft) S 180 5,8 C 5,7 C 6,0 km/h (2 Bft)
29.10.2013 06:15 7,3 C 90 % 1018,3 hPa 0,0 l/m 7,7 km/h (2 Bft) S-SO 157 5,8 C 4,9 C 5,6 km/h (1 Bft)
29.10.2013 06:20 7,2 C 90 % 1018,3 hPa 0,0 l/m 7,4 km/h (2 Bft) S 180 5,7 C 5,0 C 11,4 km/h (2 Bft)
29.10.2013 06:25 7,2 C 90 % 1018,4 hPa 0,0 l/m 6,9 km/h (2 Bft) S-SO 157 5,7 C 5,6 C 3,5 km/h (1 Bft)
29.10.2013 06:30 7,1 C 90 % 1018,4 hPa 0,0 l/m 7,4 km/h (2 Bft) SO 135 5,6 C 4,8 C 5,5 km/h (1 Bft)
29.10.2013 06:35 7,0 C 90 % 1018,4 hPa 0,0 l/m 6,9 km/h (2 Bft) S 180 5,5 C 5,5 C 5,6 km/h (1 Bft)
29.10.2013 06:40 7,0 C 91 % 1018,4 hPa 0,0 l/m 6,6 km/h (2 Bft) S-SO 157 5,6 C 5,7 C 7,9 km/h (2 Bft)
29.10.2013 06:45 6,9 C 91 % 1018,6 hPa 0,0 l/m 6,4 km/h (2 Bft) S 180 5,5 C 5,9 C 4,0 km/h (1 Bft)
29.10.2013 06:50 6,9 C 91 % 1018,6 hPa 0,0 l/m 6,6 km/h (2 Bft) S-SO 157 5,5 C 5,6 C 7,2 km/h (2 Bft)
29.10.2013 06:55 6,8 C 91 % 1018,6 hPa 0,0 l/m 6,1 km/h (2 Bft) SO 135 5,4 C 5,7 C 9,8 km/h (2 Bft)
29.10.2013 07:00 6,7 C 92 % 1018,6 hPa 0,0 l/m 6,6 km/h (2 Bft) SO 135 5,5 C 5,4 C 19,6 km/h (3 Bft)
29.10.2013 07:05 6,7 C 92 % 1018,7 hPa 0,0 l/m 6,0 km/h (2 Bft) S-SW 202 5,5 C 5,7 C 3,9 km/h (1 Bft)
29.10.2013 07:10 6,6 C 92 % 1018,7 hPa 0,0 l/m 4,0 km/h (1 Bft) S 180 5,4 C 6,4 C 4,8 km/h (1 Bft)
29.10.2013 07:15 6,6 C 92 % 1018,7 hPa 0,0 l/m 2,1 km/h (1 Bft) S-SO 157 5,4 C 6,6 C 5,1 km/h (1 Bft)
29.10.2013 07:20 6,6 C 92 % 1018,7 hPa 0,0 l/m 1,9 km/h (1 Bft) SO 135 5,4 C 6,7 C 0,0 km/h (0 Bft)
29.10.2013 07:25 6,7 C 92 % 1018,7 hPa 0,7 l/m 2,9 km/h (1 Bft) O-SO 112 5,5 C 6,7 C 4,8 km/h (1 Bft)
29.10.2013 07:30 6,7 C 93 % 1018,7 hPa 0,0 l/m 3,4 km/h (1 Bft) S 180 5,6 C 6,8 C 4,5 km/h (1 Bft)
29.10.2013 07:35 6,7 C 93 % 1018,7 hPa 0,0 l/m 3,1 km/h (1 Bft) O-SO 112 5,6 C 6,8 C 2,6 km/h (1 Bft)
29.10.2013 07:40 6,8 C 93 % 1018,7 hPa 0,0 l/m 2,9 km/h (1 Bft) S-SO 157 5,7 C 6,8 C 4,3 km/h (1 Bft)
29.10.2013 07:45 6,8 C 93 % 1018,9 hPa 0,0 l/m 2,9 km/h (1 Bft) S-SO 157 5,7 C 6,8 C 3,1 km/h (1 Bft)
29.10.2013 07:50 6,8 C 93 % 1018,9 hPa 0,0 l/m 2,4 km/h (1 Bft) S-SO 157 5,7 C 6,8 C 2,4 km/h (1 Bft)
29.10.2013 07:54 6,8 C 93 % 1018,9 hPa 0,0 l/m 2,4 km/h (1 Bft) S-SO 157 5,7 C 6,8 C 3,1 km/h (1 Bft)
29.10.2013 07:55 6,8 C 93 % 1018,9 hPa 0,0 l/m 2,4 km/h (1 Bft) S-SO 157 5,7 C 6,8 C 3,1 km/h (1 Bft)
29.10.2013 08:00 6,8 C 93 % 1018,9 hPa 0,0 l/m 2,4 km/h (1 Bft) S-SO 157 5,7 C 6,8 C 3,1 km/h (1 Bft)
29.10.2013 08:05 6,8 C 93 % 1019,4 hPa 0,0 l/m 2,4 km/h (1 Bft) S-SO 157 5,7 C 6,8 C 3,1 km/h (1 Bft)
29.10.2013 08:10 6,8 C 93 % 1019,4 hPa 0,0 l/m 0,0 km/h (0 Bft) S-SO 157 5,7 C 6,8 C 0,0 km/h (0 Bft)
29.10.2013 08:15 6,8 C 93 % 1019,4 hPa 0,0 l/m 0,0 km/h (0 Bft) S-SO 157 5,7 C 6,8 C 0,0 km/h (0 Bft)
29.10.2013 08:20 6,8 C 93 % 1019,4 hPa 0,0 l/m 0,0 km/h (0 Bft) S-SO 157 5,7 C 6,8 C 0,0 km/h (0 Bft)
29.10.2013 08:25 6,8 C 93 % 1019,9 hPa 0,0 l/m 0,0 km/h (0 Bft) S-SO 157 5,7 C 6,8 C 0,0 km/h (0 Bft)
29.10.2013 08:30 6,8 C 94 % 1019,9 hPa 0,0 l/m 0,0 km/h (0 Bft) S-SO 157 5,9 C 6,8 C 0,0 km/h (0 Bft)
29.10.2013 08:35 6,8 C 94 % 1019,9 hPa 0,0 l/m 0,0 km/h (0 Bft) S-SO 157 5,9 C 6,8 C 0,0 km/h (0 Bft)
29.10.2013 08:40 6,8 C 94 % 1019,9 hPa 0,0 l/m 0,0 km/h (0 Bft) S-SO 157 5,9 C 6,8 C 0,0 km/h (0 Bft)
29.10.2013 08:45 6,8 C 94 % 1020,0 hPa 0,0 l/m 0,0 km/h (0 Bft) S-SO 157 5,9 C 6,8 C 0,0 km/h (0 Bft)
29.10.2013 08:50 6,8 C 94 % 1020,0 hPa 0,0 l/m 0,0 km/h (0 Bft) S-SO 157 5,9 C 6,8 C 0,0 km/h (0 Bft)
29.10.2013 08:55 6,8 C 94 % 1020,0 hPa 0,0 l/m 0,0 km/h (0 Bft) S-SO 157 5,9 C 6,8 C 0,0 km/h (0 Bft)
29.10.2013 09:00 6,9 C 94 % 1020,0 hPa 0,0 l/m 0,0 km/h (0 Bft) S-SO 157 6,0 C 6,8 C 0,0 km/h (0 Bft)
29.10.2013 09:05 7,0 C 94 % 1020,1 hPa 0,0 l/m 0,0 km/h (0 Bft) S-SO 157 6,1 C 6,8 C 0,0 km/h (0 Bft)
29.10.2013 09:10 7,0 C 94 % 1020,1 hPa 0,7 l/m 0,0 km/h (0 Bft) S-SO 157 6,1 C 6,8 C 0,0 km/h (0 Bft)
29.10.2013 09:15 7,0 C 94 % 1020,1 hPa 0,0 l/m 0,0 km/h (0 Bft) S-SO 157 6,1 C 6,8 C 0,0 km/h (0 Bft)
29.10.2013 09:20 7,0 C 94 % 1020,1 hPa 0,0 l/m 0,0 km/h (0 Bft) S-SO 157 6,1 C 6,8 C 0,0 km/h (0 Bft)
29.10.2013 09:25 7,0 C 94 % 1020,1 hPa 0,0 l/m 0,0 km/h (0 Bft) S-SO 157 6,1 C 6,8 C 0,0 km/h (0 Bft)
29.10.2013 09:30 7,1 C 94 % 1020,1 hPa 0,0 l/m 0,0 km/h (0 Bft) S-SO 157 6,2 C 6,8 C 0,0 km/h (0 Bft)
29.10.2013 09:35 7,2 C 94 % 1020,1 hPa 0,0 l/m 0,0 km/h (0 Bft) S-SO 157 6,3 C 6,8 C 0,0 km/h (0 Bft)
29.10.2013 09:40 7,2 C 94 % 1020,1 hPa 0,0 l/m 0,0 km/h (0 Bft) S-SO 157 6,3 C 6,8 C 0,0 km/h (0 Bft)
29.10.2013 09:45 7,0 C 94 % 1019,8 hPa 0,0 l/m 0,0 km/h (0 Bft) S-SO 157 6,1 C 6,8 C 0,0 km/h (0 Bft)
29.10.2013 09:50 7,1 C 94 % 1019,8 hPa 0,0 l/m 0,0 km/h (0 Bft) S-SO 157 6,2 C 6,8 C 0,0 km/h (0 Bft)
29.10.2013 09:55 7,0 C 94 % 1019,8 hPa 0,0 l/m 0,0 km/h (0 Bft) S-SO 157 6,1 C 6,8 C 0,0 km/h (0 Bft)
29.10.2013 10:00 7,0 C 94 % 1019,8 hPa 0,0 l/m 0,0 km/h (0 Bft) S-SO 157 6,1 C 6,8 C 0,0 km/h (0 Bft)
29.10.2013 10:05 7,0 C 94 % 1019,8 hPa 0,0 l/m 0,0 km/h (0 Bft) S-SO 157 6,1 C 6,8 C 0,0 km/h (0 Bft)
29.10.2013 10:10 7,0 C 94 % 1019,8 hPa 0,0 l/m 0,0 km/h (0 Bft) S-SO 157 6,1 C 6,8 C 0,0 km/h (0 Bft)
29.10.2013 10:15 7,0 C 94 % 1019,8 hPa 0,0 l/m 0,0 km/h (0 Bft) S-SO 157 6,1 C 6,8 C 0,0 km/h (0 Bft)
29.10.2013 10:20 7,1 C 94 % 1019,8 hPa 0,0 l/m 0,0 km/h (0 Bft) S-SO 157 6,2 C 6,8 C 0,0 km/h (0 Bft)
29.10.2013 10:25 7,1 C 94 % 1019,9 hPa 0,0 l/m 0,0 km/h (0 Bft) S-SO 157 6,2 C 6,8 C 0,0 km/h (0 Bft)
29.10.2013 10:30 7,2 C 94 % 1019,9 hPa 0,0 l/m 0,0 km/h (0 Bft) S-SO 157 6,3 C 6,8 C 0,0 km/h (0 Bft)
29.10.2013 10:35 7,3 C 94 % 1019,9 hPa 0,0 l/m 0,0 km/h (0 Bft) S-SO 157 6,4 C 6,8 C 0,0 km/h (0 Bft)
29.10.2013 10:40 7,3 C 94 % 1019,9 hPa 0,0 l/m 0,0 km/h (0 Bft) S-SO 157 6,4 C 6,8 C 0,0 km/h (0 Bft)
29.10.2013 10:45 7,3 C 94 % 1020,1 hPa 0,0 l/m 0,0 km/h (0 Bft) S-SO 157 6,4 C 6,8 C 0,0 km/h (0 Bft)
29.10.2013 10:50 7,3 C 94 % 1020,1 hPa 0,0 l/m 0,0 km/h (0 Bft) S-SO 157 6,4 C 6,8 C 0,0 km/h (0 Bft)
29.10.2013 10:55 7,3 C 94 % 1020,1 hPa 0,0 l/m 0,0 km/h (0 Bft) S-SO 157 6,4 C 6,8 C 0,0 km/h (0 Bft)
29.10.2013 11:00 7,3 C 94 % 1020,1 hPa 1,4 l/m 0,0 km/h (0 Bft) S-SO 157 6,4 C 6,8 C 0,0 km/h (0 Bft)
29.10.2013 11:05 7,3 C 95 % 1020,2 hPa 0,0 l/m 0,0 km/h (0 Bft) S-SO 157 6,6 C 6,8 C 0,0 km/h (0 Bft)
29.10.2013 11:10 7,2 C 95 % 1020,2 hPa 0,0 l/m 0,0 km/h (0 Bft) S-SO 157 6,5 C 6,8 C 0,0 km/h (0 Bft)
29.10.2013 11:15 7,6 C 95 % 1020,2 hPa 0,0 l/m 0,0 km/h (0 Bft) S-SO 157 6,9 C 6,8 C 0,0 km/h (0 Bft)
29.10.2013 11:20 8,1 C 94 % 1020,2 hPa 0,0 l/m 0,0 km/h (0 Bft) S-SO 157 7,2 C 6,8 C 0,0 km/h (0 Bft)
29.10.2013 11:25 8,4 C 94 % 1019,9 hPa 0,0 l/m 0,0 km/h (0 Bft) S-SO 157 7,5 C 6,8 C 0,0 km/h (0 Bft)
29.10.2013 11:30 8,4 C 94 % 1019,9 hPa 0,0 l/m 0,0 km/h (0 Bft) S-SO 157 7,5 C 6,8 C 0,0 km/h (0 Bft)
29.10.2013 11:35 8,5 C 94 % 1019,9 hPa 0,0 l/m 0,0 km/h (0 Bft) S-SO 157 7,6 C 6,8 C 0,0 km/h (0 Bft)
29.10.2013 11:40 9,1 C 94 % 1019,9 hPa 0,0 l/m 0,0 km/h (0 Bft) S-SO 157 8,2 C 6,8 C 0,0 km/h (0 Bft)
29.10.2013 11:45 9,2 C 94 % 1020,5 hPa 0,0 l/m 0,0 km/h (0 Bft) S-SO 157 8,3 C 6,8 C 0,0 km/h (0 Bft)
29.10.2013 11:50 9,0 C 94 % 1020,5 hPa 0,0 l/m 0,0 km/h (0 Bft) S-SO 157 8,1 C 6,8 C 0,0 km/h (0 Bft)
29.10.2013 11:55 9,5 C 94 % 1020,5 hPa 0,0 l/m 0,0 km/h (0 Bft) S-SO 157 8,6 C 6,8 C 0,0 km/h (0 Bft)
29.10.2013 12:00 9,3 C 93 % 1020,5 hPa 0,0 l/m 0,0 km/h (0 Bft) S-SO 157 8,2 C 6,8 C 0,0 km/h (0 Bft)
29.10.2013 12:05 8,9 C 93 % 1020,5 hPa 0,0 l/m 0,0 km/h (0 Bft) S-SO 157 7,8 C 6,8 C 0,0 km/h (0 Bft)
29.10.2013 12:10 9,1 C 92 % 1020,5 hPa 0,0 l/m 0,0 km/h (0 Bft) S-SO 157 7,9 C 6,8 C 0,0 km/h (0 Bft)
29.10.2013 12:15 9,6 C 92 % 1020,5 hPa 0,0 l/m 0,0 km/h (0 Bft) S-SO 157 8,4 C 6,8 C 0,0 km/h (0 Bft)
29.10.2013 12:20 9,5 C 92 % 1020,5 hPa 0,0 l/m 0,0 km/h (0 Bft) S-SO 157 8,3 C 6,8 C 0,0 km/h (0 Bft)
29.10.2013 12:25 9,5 C 91 % 1019,8 hPa 0,0 l/m 0,0 km/h (0 Bft) S-SO 157 8,1 C 6,8 C 0,0 km/h (0 Bft)
29.10.2013 12:30 9,4 C 90 % 1019,8 hPa 0,0 l/m 0,0 km/h (0 Bft) S-SO 157 7,8 C 6,8 C 0,0 km/h (0 Bft)
29.10.2013 12:35 9,4 C 89 % 1019,8 hPa 0,0 l/m 0,0 km/h (0 Bft) S-SO 157 7,7 C 6,8 C 0,0 km/h (0 Bft)
29.10.2013 12:40 9,4 C 89 % 1019,8 hPa 0,0 l/m 0,0 km/h (0 Bft) S-SO 157 7,7 C 6,8 C 0,0 km/h (0 Bft)
29.10.2013 12:45 9,2 C 89 % 1020,0 hPa 0,0 l/m 0,0 km/h (0 Bft) S-SO 157 7,5 C 6,8 C 0,0 km/h (0 Bft)
29.10.2013 12:50 9,0 C 89 % 1020,0 hPa 0,0 l/m 0,0 km/h (0 Bft) S-SO 157 7,3 C 6,8 C 0,0 km/h (0 Bft)
29.10.2013 12:54 9,2 C 89 % 1020,0 hPa 0,0 l/m 0,0 km/h (0 Bft) S-SO 157 7,5 C 6,8 C 0,0 km/h (0 Bft)
29.10.2013 12:55 9,2 C 89 % 1020,0 hPa 0,0 l/m 0,0 km/h (0 Bft) S-SO 157 7,5 C 6,8 C 0,0 km/h (0 Bft)
29.10.2013 13:00 9,3 C 89 % 1020,0 hPa 0,0 l/m 0,0 km/h (0 Bft) S-SO 157 7,6 C 6,8 C 0,0 km/h (0 Bft)
29.10.2013 13:05 9,3 C 89 % 1019,6 hPa 0,0 l/m 0,0 km/h (0 Bft) S-SO 157 7,6 C 6,8 C 0,0 km/h (0 Bft)
29.10.2013 13:10 9,2 C 89 % 1019,6 hPa 0,0 l/m 0,0 km/h (0 Bft) S-SO 157 7,5 C 6,8 C 0,0 km/h (0 Bft)
29.10.2013 13:15 9,5 C 89 % 1019,6 hPa 0,0 l/m 2,6 km/h (1 Bft) O-SO 112 7,8 C 10,7 C 0,0 km/h (0 Bft)
29.10.2013 13:20 9,9 C 89 % 1019,6 hPa 0,0 l/m 0,6 km/h (0 Bft) S 180 8,2 C 11,2 C 1,8 km/h (1 Bft)
29.10.2013 13:25 10,0 C 88 % 1019,8 hPa 0,0 l/m 0,0 km/h (0 Bft) SO 135 8,1 C 11,6 C 0,0 km/h (0 Bft)
29.10.2013 13:30 10,0 C 87 % 1019,8 hPa 0,0 l/m 0,0 km/h (0 Bft) S-SW 202 7,9 C 11,9 C 0,0 km/h (0 Bft)
29.10.2013 13:35 10,3 C 87 % 1019,8 hPa 0,0 l/m 0,3 km/h (0 Bft) S 180 8,2 C 12,3 C 3,5 km/h (1 Bft)
29.10.2013 13:40 10,1 C 86 % 1019,8 hPa 0,0 l/m 1,8 km/h (1 Bft) SO 135 7,9 C 12,2 C 3,9 km/h (1 Bft)
29.10.2013 13:45 10,0 C 87 % 1020,1 hPa 0,0 l/m 2,1 km/h (1 Bft) SO 135 7,9 C 11,9 C 5,5 km/h (1 Bft)
29.10.2013 13:50 10,1 C 86 % 1020,1 hPa 0,0 l/m 2,1 km/h (1 Bft) S-SW 202 7,9 C 11,7 C 3,5 km/h (1 Bft)
29.10.2013 13:55 10,2 C 86 % 1020,1 hPa 0,0 l/m 2,6 km/h (1 Bft) S 180 8,0 C 11,7 C 2,6 km/h (1 Bft)
29.10.2013 14:00 10,1 C 86 % 1020,1 hPa 0,0 l/m 2,1 km/h (1 Bft) S-SW 202 7,9 C 11,7 C 5,3 km/h (1 Bft)
29.10.2013 14:05 9,8 C 84 % 1019,8 hPa 0,0 l/m 2,6 km/h (1 Bft) S 180 7,2 C 11,4 C 4,8 km/h (1 Bft)
29.10.2013 14:10 9,5 C 84 % 1019,8 hPa 0,0 l/m 2,7 km/h (1 Bft) W-SW 247 6,9 C 11,0 C 4,2 km/h (1 Bft)
29.10.2013 14:15 9,6 C 86 % 1019,8 hPa 0,0 l/m 2,6 km/h (1 Bft) S 180 7,4 C 10,7 C 0,0 km/h (0 Bft)
29.10.2013 14:20 9,6 C 86 % 1019,8 hPa 0,0 l/m 2,3 km/h (1 Bft) S-SW 202 7,4 C 10,6 C 2,4 km/h (1 Bft)
29.10.2013 14:25 9,6 C 86 % 1019,5 hPa 0,0 l/m 2,3 km/h (1 Bft) SW 225 7,4 C 10,5 C 4,0 km/h (1 Bft)
29.10.2013 14:30 9,4 C 86 % 1019,5 hPa 0,0 l/m 3,4 km/h (1 Bft) S 180 7,2 C 10,4 C 4,5 km/h (1 Bft)
29.10.2013 14:35 9,3 C 86 % 1019,5 hPa 0,0 l/m 2,6 km/h (1 Bft) S 180 7,1 C 10,3 C 2,4 km/h (1 Bft)
29.10.2013 14:40 9,4 C 86 % 1019,5 hPa 0,0 l/m 2,3 km/h (1 Bft) S 180 7,2 C 10,3 C 4,5 km/h (1 Bft)
29.10.2013 14:45 9,4 C 86 % 1019,6 hPa 0,0 l/m 3,4 km/h (1 Bft) S-SW 202 7,2 C 10,3 C 3,2 km/h (1 Bft)
29.10.2013 14:50 9,4 C 87 % 1019,6 hPa 0,0 l/m 3,5 km/h (1 Bft) S 180 7,3 C 10,2 C 5,0 km/h (1 Bft)
29.10.2013 14:55 9,4 C 87 % 1019,6 hPa 0,0 l/m 2,7 km/h (1 Bft) S 180 7,3 C 10,1 C 1,6 km/h (1 Bft)
29.10.2013 15:00 9,4 C 88 % 1019,6 hPa 0,0 l/m 3,1 km/h (1 Bft) S 180 7,5 C 10,0 C 0,0 km/h (0 Bft)
29.10.2013 15:05 9,4 C 88 % 1019,4 hPa 0,0 l/m 3,2 km/h (1 Bft) S-SW 202 7,5 C 9,9 C 5,6 km/h (1 Bft)
29.10.2013 15:10 9,2 C 88 % 1019,4 hPa 0,0 l/m 2,4 km/h (1 Bft) S 180 7,3 C 9,9 C 0,0 km/h (0 Bft)
29.10.2013 15:15 9,1 C 88 % 1019,4 hPa 0,0 l/m 1,6 km/h (1 Bft) S-SO 157 7,2 C 9,7 C 0,0 km/h (0 Bft)
29.10.2013 15:20 9,0 C 89 % 1019,4 hPa 0,0 l/m 0,8 km/h (0 Bft) SO 135 7,3 C 9,6 C 0,0 km/h (0 Bft)
29.10.2013 15:25 9,0 C 89 % 1019,7 hPa 0,0 l/m 0,6 km/h (0 Bft) SO 135 7,3 C 9,5 C 0,0 km/h (0 Bft)
29.10.2013 15:30 9,0 C 89 % 1019,7 hPa 0,0 l/m 0,6 km/h (0 Bft) O-SO 112 7,3 C 9,5 C 0,0 km/h (0 Bft)
29.10.2013 15:35 9,0 C 90 % 1019,7 hPa 0,0 l/m 0,2 km/h (0 Bft) SO 135 7,4 C 9,5 C 0,0 km/h (0 Bft)
29.10.2013 15:40 8,9 C 90 % 1019,7 hPa 0,0 l/m 0,3 km/h (0 Bft) SO 135 7,4 C 9,5 C 4,3 km/h (1 Bft)
29.10.2013 15:45 8,8 C 90 % 1019,8 hPa 0,0 l/m 0,6 km/h (0 Bft) S-SO 157 7,3 C 9,3 C 0,0 km/h (0 Bft)
29.10.2013 15:50 8,8 C 90 % 1019,8 hPa 0,0 l/m 0,8 km/h (0 Bft) O-SO 112 7,3 C 9,2 C 0,0 km/h (0 Bft)
29.10.2013 15:55 8,6 C 90 % 1019,8 hPa 0,0 l/m 1,6 km/h (1 Bft) S 180 7,1 C 9,0 C 3,5 km/h (1 Bft)
29.10.2013 16:00 8,6 C 90 % 1019,8 hPa 0,0 l/m 1,8 km/h (1 Bft) SO 135 7,1 C 8,9 C 2,9 km/h (1 Bft)
29.10.2013 16:05 8,6 C 90 % 1019,6 hPa 0,0 l/m 1,4 km/h (1 Bft) O 90 7,1 C 8,7 C 1,6 km/h (1 Bft)
29.10.2013 16:10 8,6 C 90 % 1019,6 hPa 0,0 l/m 1,3 km/h (1 Bft) O-NO 67 7,1 C 8,6 C 0,0 km/h (0 Bft)
29.10.2013 16:15 8,4 C 90 % 1019,6 hPa 0,0 l/m 0,2 km/h (0 Bft) O 90 6,9 C 8,5 C 0,0 km/h (0 Bft)
29.10.2013 16:20 8,3 C 90 % 1019,6 hPa 0,0 l/m 0,0 km/h (0 Bft) O-NO 67 6,8 C 8,4 C 0,0 km/h (0 Bft)
29.10.2013 16:25 8,2 C 90 % 1019,8 hPa 0,0 l/m 0,2 km/h (0 Bft) W-NW 292 6,7 C 8,3 C 0,0 km/h (0 Bft)
29.10.2013 16:30 8,2 C 90 % 1019,8 hPa 0,0 l/m 0,2 km/h (0 Bft) NO 45 6,7 C 8,3 C 0,0 km/h (0 Bft)
29.10.2013 16:35 8,1 C 90 % 1019,8 hPa 0,0 l/m 0,3 km/h (0 Bft) NO 45 6,6 C 8,2 C 0,0 km/h (0 Bft)
29.10.2013 16:40 8,0 C 90 % 1019,8 hPa 0,0 l/m 0,3 km/h (0 Bft) SO 135 6,5 C 8,2 C 1,9 km/h (1 Bft)
29.10.2013 16:45 8,0 C 91 % 1019,8 hPa 0,0 l/m 0,2 km/h (0 Bft) SO 135 6,6 C 8,1 C 0,0 km/h (0 Bft)
29.10.2013 16:50 7,9 C 91 % 1019,8 hPa 0,0 l/m 0,3 km/h (0 Bft) O-NO 67 6,5 C 8,0 C 0,0 km/h (0 Bft)
29.10.2013 16:55 7,9 C 91 % 1019,8 hPa 0,0 l/m 0,2 km/h (0 Bft) O 90 6,5 C 8,0 C 0,0 km/h (0 Bft)
29.10.2013 17:00 7,8 C 91 % 1019,8 hPa 0,0 l/m 0,0 km/h (0 Bft) O 90 6,4 C 8,0 C 0,0 km/h (0 Bft)
29.10.2013 17:05 7,8 C 91 % 1019,9 hPa 0,0 l/m 0,0 km/h (0 Bft) NO 45 6,4 C 7,9 C 0,0 km/h (0 Bft)
29.10.2013 17:10 7,8 C 91 % 1019,9 hPa 0,0 l/m 0,2 km/h (0 Bft) NO 45 6,4 C 7,8 C 2,1 km/h (1 Bft)
29.10.2013 17:15 7,7 C 91 % 1019,9 hPa 0,0 l/m 0,2 km/h (0 Bft) O 90 6,3 C 7,8 C 0,0 km/h (0 Bft)
29.10.2013 17:20 7,6 C 91 % 1019,9 hPa 0,0 l/m 0,2 km/h (0 Bft) NO 45 6,2 C 7,7 C 0,0 km/h (0 Bft)
29.10.2013 17:25 7,6 C 92 % 1019,9 hPa 0,0 l/m 0,0 km/h (0 Bft) O-NO 67 6,4 C 7,7 C 0,0 km/h (0 Bft)
29.10.2013 17:30 7,5 C 92 % 1019,9 hPa 0,0 l/m 0,0 km/h (0 Bft) NO 45 6,3 C 7,6 C 0,0 km/h (0 Bft)
29.10.2013 17:35 7,5 C 91 % 1019,9 hPa 0,0 l/m 0,0 km/h (0 Bft) O-NO 67 6,1 C 7,6 C 0,0 km/h (0 Bft)
29.10.2013 17:40 7,5 C 92 % 1019,9 hPa 0,0 l/m 0,0 km/h (0 Bft) O 90 6,3 C 7,5 C 0,0 km/h (0 Bft)
29.10.2013 17:45 7,5 C 92 % 1020,1 hPa 0,0 l/m 0,0 km/h (0 Bft) NO 45 6,3 C 7,5 C 0,0 km/h (0 Bft)
29.10.2013 17:50 7,4 C 92 % 1020,1 hPa 0,0 l/m 0,0 km/h (0 Bft) NO 45 6,2 C 7,5 C 0,0 km/h (0 Bft)
29.10.2013 17:54 7,5 C 91 % 1020,1 hPa 0,0 l/m 0,0 km/h (0 Bft) N-NO 22 6,1 C 7,5 C 0,0 km/h (0 Bft)
29.10.2013 17:55 7,5 C 91 % 1020,1 hPa 0,0 l/m 0,0 km/h (0 Bft) N-NO 22 6,1 C 7,5 C 0,0 km/h (0 Bft)
29.10.2013 18:00 7,5 C 91 % 1020,1 hPa 0,0 l/m 0,5 km/h (0 Bft) O-SO 112 6,1 C 7,5 C 0,0 km/h (0 Bft)
29.10.2013 18:05 7,5 C 91 % 1020,1 hPa 0,0 l/m 0,6 km/h (0 Bft) O 90 6,1 C 7,6 C 0,0 km/h (0 Bft)
29.10.2013 18:10 7,4 C 91 % 1020,1 hPa 0,0 l/m 0,3 km/h (0 Bft) S-SO 157 6,0 C 7,6 C 2,9 km/h (1 Bft)
29.10.2013 18:15 7,4 C 91 % 1020,1 hPa 0,0 l/m 0,5 km/h (0 Bft) O 90 6,0 C 7,7 C 0,0 km/h (0 Bft)
29.10.2013 18:20 7,4 C 91 % 1020,1 hPa 0,0 l/m 0,3 km/h (0 Bft) O-SO 112 6,0 C 7,7 C 0,0 km/h (0 Bft)
29.10.2013 18:25 7,4 C 91 % 1020,2 hPa 0,0 l/m 0,0 km/h (0 Bft) O 90 6,0 C 7,5 C 0,0 km/h (0 Bft)
29.10.2013 18:30 7,3 C 91 % 1020,2 hPa 0,0 l/m 0,0 km/h (0 Bft) S 180 5,9 C 7,5 C 0,0 km/h (0 Bft)
29.10.2013 18:35 7,3 C 91 % 1020,2 hPa 0,0 l/m 0,2 km/h (0 Bft) N 360 5,9 C 7,3 C 0,0 km/h (0 Bft)
29.10.2013 18:40 7,2 C 91 % 1020,2 hPa 0,0 l/m 0,2 km/h (0 Bft) N-NO 22 5,8 C 7,3 C 0,0 km/h (0 Bft)
29.10.2013 18:45 7,1 C 91 % 1020,4 hPa 0,0 l/m 0,0 km/h (0 Bft) N-NO 22 5,7 C 7,2 C 0,0 km/h (0 Bft)
29.10.2013 18:50 7,1 C 91 % 1020,4 hPa 0,0 l/m 0,0 km/h (0 Bft) N-NO 22 5,7 C 7,1 C 0,0 km/h (0 Bft)
29.10.2013 18:55 7,0 C 92 % 1020,4 hPa 0,0 l/m 0,0 km/h (0 Bft) S-SW 202 5,8 C 7,1 C 0,0 km/h (0 Bft)
29.10.2013 19:00 7,0 C 92 % 1020,4 hPa 0,0 l/m 0,0 km/h (0 Bft) SO 135 5,8 C 7,1 C 0,0 km/h (0 Bft)
29.10.2013 19:05 7,0 C 92 % 1020,2 hPa 0,0 l/m 0,2 km/h (0 Bft) O-SO 112 5,8 C 7,1 C 0,0 km/h (0 Bft)
29.10.2013 19:10 7,0 C 92 % 1020,2 hPa 0,0 l/m 0,2 km/h (0 Bft) O-SO 112 5,8 C 7,0 C 1,9 km/h (1 Bft)
29.10.2013 19:15 7,0 C 92 % 1020,2 hPa 0,0 l/m 0,0 km/h (0 Bft) O-SO 112 5,8 C 7,0 C 0,0 km/h (0 Bft)
29.10.2013 19:20 6,9 C 93 % 1020,2 hPa 0,0 l/m 0,0 km/h (0 Bft) S 180 5,8 C 7,0 C 0,0 km/h (0 Bft)
29.10.2013 19:25 7,0 C 93 % 1020,4 hPa 0,0 l/m 0,3 km/h (0 Bft) O-NO 67 5,9 C 7,0 C 2,1 km/h (1 Bft)
29.10.2013 19:30 7,0 C 93 % 1020,4 hPa 0,0 l/m 0,3 km/h (0 Bft) NO 45 5,9 C 7,0 C 0,0 km/h (0 Bft)
29.10.2013 19:35 7,0 C 93 % 1020,4 hPa 0,0 l/m 0,2 km/h (0 Bft) NO 45 5,9 C 7,0 C 0,0 km/h (0 Bft)
29.10.2013 19:40 7,0 C 93 % 1020,4 hPa 0,0 l/m 0,2 km/h (0 Bft) NO 45 5,9 C 7,0 C 0,0 km/h (0 Bft)
29.10.2013 19:45 7,0 C 93 % 1020,4 hPa 0,0 l/m 0,0 km/h (0 Bft) O 90 5,9 C 7,0 C 0,0 km/h (0 Bft)
29.10.2013 19:50 7,0 C 93 % 1020,4 hPa 0,0 l/m 0,0 km/h (0 Bft) O-NO 67 5,9 C 7,0 C 0,0 km/h (0 Bft)
29.10.2013 19:55 7,0 C 93 % 1020,4 hPa 0,0 l/m 0,0 km/h (0 Bft) O-NO 67 5,9 C 7,0 C 0,0 km/h (0 Bft)
29.10.2013 20:00 7,0 C 93 % 1020,4 hPa 0,0 l/m 0,0 km/h (0 Bft) NO 45 5,9 C 7,0 C 0,0 km/h (0 Bft)
29.10.2013 20:05 7,0 C 93 % 1020,5 hPa 0,0 l/m 0,3 km/h (0 Bft) NO 45 5,9 C 7,0 C 0,0 km/h (0 Bft)
29.10.2013 20:10 7,0 C 93 % 1020,5 hPa 0,0 l/m 0,3 km/h (0 Bft) NO 45 5,9 C 7,0 C 0,0 km/h (0 Bft)
29.10.2013 20:15 6,9 C 94 % 1020,5 hPa 0,0 l/m 0,0 km/h (0 Bft) NO 45 6,0 C 6,9 C 0,0 km/h (0 Bft)
29.10.2013 20:20 6,9 C 94 % 1020,5 hPa 0,0 l/m 0,0 km/h (0 Bft) NO 45 6,0 C 6,9 C 0,0 km/h (0 Bft)
29.10.2013 20:25 6,9 C 94 % 1020,6 hPa 0,0 l/m 0,0 km/h (0 Bft) NO 45 6,0 C 6,9 C 0,0 km/h (0 Bft)
29.10.2013 20:30 6,9 C 94 % 1020,6 hPa 0,0 l/m 0,2 km/h (0 Bft) S-SO 157 6,0 C 6,9 C 2,1 km/h (1 Bft)
29.10.2013 20:35 6,9 C 94 % 1020,6 hPa 0,0 l/m 0,2 km/h (0 Bft) O-NO 67 6,0 C 6,9 C 0,0 km/h (0 Bft)
29.10.2013 20:40 6,9 C 94 % 1020,6 hPa 0,0 l/m 0,3 km/h (0 Bft) NO 45 6,0 C 6,9 C 0,0 km/h (0 Bft)
29.10.2013 20:45 7,0 C 94 % 1020,7 hPa 0,0 l/m 0,5 km/h (0 Bft) N-NO 22 6,1 C 7,0 C 0,0 km/h (0 Bft)
29.10.2013 20:50 6,9 C 94 % 1020,7 hPa 0,0 l/m 0,3 km/h (0 Bft) NO 45 6,0 C 7,0 C 0,0 km/h (0 Bft)
29.10.2013 20:55 6,9 C 94 % 1020,7 hPa 0,0 l/m 0,2 km/h (0 Bft) N 360 6,0 C 6,9 C 0,0 km/h (0 Bft)
29.10.2013 21:00 6,9 C 94 % 1020,7 hPa 0,0 l/m 0,2 km/h (0 Bft) NO 45 6,0 C 6,9 C 0,0 km/h (0 Bft)
29.10.2013 21:05 6,9 C 94 % 1020,9 hPa 0,0 l/m 0,0 km/h (0 Bft) NO 45 6,0 C 6,9 C 0,0 km/h (0 Bft)
29.10.2013 21:10 6,9 C 94 % 1020,9 hPa 0,0 l/m 0,2 km/h (0 Bft) O-SO 112 6,0 C 6,9 C 0,0 km/h (0 Bft)
29.10.2013 21:15 6,9 C 94 % 1020,9 hPa 0,0 l/m 0,2 km/h (0 Bft) O-SO 112 6,0 C 6,9 C 0,0 km/h (0 Bft)
29.10.2013 21:20 6,8 C 94 % 1020,9 hPa 0,0 l/m 0,2 km/h (0 Bft) O-SO 112 5,9 C 6,9 C 2,3 km/h (1 Bft)
29.10.2013 21:25 6,8 C 94 % 1020,8 hPa 0,0 l/m 0,2 km/h (0 Bft) NO 45 5,9 C 6,9 C 0,0 km/h (0 Bft)
29.10.2013 21:30 6,8 C 94 % 1020,8 hPa 0,0 l/m 0,3 km/h (0 Bft) O 90 5,9 C 6,8 C 2,1 km/h (1 Bft)
29.10.2013 21:35 6,8 C 94 % 1020,8 hPa 0,0 l/m 0,2 km/h (0 Bft) S 180 5,9 C 6,9 C 0,0 km/h (0 Bft)
29.10.2013 21:40 6,8 C 94 % 1020,8 hPa 0,0 l/m 0,2 km/h (0 Bft) O 90 5,9 C 6,9 C 0,0 km/h (0 Bft)
29.10.2013 21:45 6,8 C 94 % 1021,1 hPa 0,0 l/m 0,5 km/h (0 Bft) NO 45 5,9 C 6,8 C 2,3 km/h (1 Bft)
29.10.2013 21:50 6,7 C 94 % 1021,1 hPa 0,0 l/m 0,5 km/h (0 Bft) O 90 5,8 C 6,8 C 0,0 km/h (0 Bft)
29.10.2013 21:55 6,7 C 94 % 1021,1 hPa 0,0 l/m 0,5 km/h (0 Bft) NO 45 5,8 C 6,8 C 0,0 km/h (0 Bft)
29.10.2013 22:00 6,6 C 94 % 1021,1 hPa 0,0 l/m 0,5 km/h (0 Bft) NO 45 5,7 C 6,8 C 0,0 km/h (0 Bft)
29.10.2013 22:05 6,6 C 94 % 1021,0 hPa 0,0 l/m 0,2 km/h (0 Bft) SO 135 5,7 C 6,7 C 0,0 km/h (0 Bft)
29.10.2013 22:10 6,6 C 94 % 1021,0 hPa 0,0 l/m 0,2 km/h (0 Bft) NO 45 5,7 C 6,7 C 0,0 km/h (0 Bft)
29.10.2013 22:15 6,5 C 94 % 1021,0 hPa 0,0 l/m 0,2 km/h (0 Bft) NO 45 5,6 C 6,6 C 0,0 km/h (0 Bft)
29.10.2013 22:20 6,5 C 94 % 1021,0 hPa 0,0 l/m 0,0 km/h (0 Bft) NO 45 5,6 C 6,6 C 0,0 km/h (0 Bft)
29.10.2013 22:25 6,5 C 94 % 1021,1 hPa 0,0 l/m 0,0 km/h (0 Bft) O 90 5,6 C 6,5 C 0,0 km/h (0 Bft)
29.10.2013 22:30 6,4 C 94 % 1021,1 hPa 0,0 l/m 0,0 km/h (0 Bft) S 180 5,5 C 6,5 C 0,0 km/h (0 Bft)
29.10.2013 22:35 6,4 C 95 % 1021,1 hPa 0,0 l/m 0,2 km/h (0 Bft) O 90 5,7 C 6,5 C 0,0 km/h (0 Bft)
29.10.2013 22:40 6,4 C 95 % 1021,1 hPa 0,0 l/m 0,3 km/h (0 Bft) S 180 5,7 C 6,5 C 2,7 km/h (1 Bft)
29.10.2013 22:45 6,4 C 95 % 1021,4 hPa 0,0 l/m 0,5 km/h (0 Bft) O 90 5,7 C 6,5 C 0,0 km/h (0 Bft)
29.10.2013 22:49 6,5 C 95 % 1021,4 hPa 0,0 l/m 0,6 km/h (0 Bft) O 90 5,8 C 6,5 C 0,0 km/h (0 Bft)
29.10.2013 22:50 6,5 C 95 % 1021,4 hPa 0,0 l/m 0,6 km/h (0 Bft) O 90 5,8 C 6,5 C 0,0 km/h (0 Bft)
29.10.2013 22:55 6,5 C 95 % 1021,4 hPa 0,0 l/m 0,3 km/h (0 Bft) NO 45 5,8 C 6,5 C 0,0 km/h (0 Bft)
29.10.2013 23:00 6,5 C 95 % 1021,4 hPa 0,0 l/m 0,3 km/h (0 Bft) O-NO 67 5,8 C 6,5 C 2,3 km/h (1 Bft)
29.10.2013 23:05 6,5 C 95 % 1021,1 hPa 0,0 l/m 0,5 km/h (0 Bft) O-NO 67 5,8 C 6,5 C 0,0 km/h (0 Bft)
29.10.2013 23:10 6,4 C 95 % 1021,1 hPa 0,0 l/m 0,3 km/h (0 Bft) NO 45 5,7 C 6,5 C 0,0 km/h (0 Bft)
29.10.2013 23:15 6,5 C 95 % 1021,1 hPa 0,0 l/m 0,0 km/h (0 Bft) NO 45 5,8 C 6,5 C 0,0 km/h (0 Bft)
29.10.2013 23:20 6,4 C 95 % 1021,1 hPa 0,0 l/m 0,0 km/h (0 Bft) O-NO 67 5,7 C 6,5 C 0,0 km/h (0 Bft)
29.10.2013 23:25 6,3 C 95 % 1021,3 hPa 0,0 l/m 0,2 km/h (0 Bft) NO 45 5,6 C 6,4 C 0,0 km/h (0 Bft)
29.10.2013 23:30 6,4 C 95 % 1021,3 hPa 0,0 l/m 0,2 km/h (0 Bft) NO 45 5,7 C 6,4 C 0,0 km/h (0 Bft)
29.10.2013 23:35 6,2 C 95 % 1021,3 hPa 0,0 l/m 0,2 km/h (0 Bft) N 360 5,5 C 6,3 C 0,0 km/h (0 Bft)
29.10.2013 23:40 6,2 C 95 % 1021,3 hPa 0,0 l/m 0,0 km/h (0 Bft) O 90 5,5 C 6,3 C 0,0 km/h (0 Bft)
29.10.2013 23:45 6,2 C 95 % 1021,5 hPa 0,0 l/m 0,0 km/h (0 Bft) N-NO 22 5,5 C 6,2 C 0,0 km/h (0 Bft)
29.10.2013 23:50 6,1 C 95 % 1021,5 hPa 0,0 l/m 0,0 km/h (0 Bft) S 180 5,4 C 6,2 C 0,0 km/h (0 Bft)
29.10.2013 23:55 6,1 C 95 % 1021,5 hPa 0,0 l/m 0,2 km/h (0 Bft) NO 45 5,4 C 6,2 C 0,0 km/h (0 Bft)
_ Min-Zeit 23:55 00:05 00:00 - 23:50 - - 04:45 06:30 23:55
Minimum _ 6,1 C 77 % 1015,7 hPa - 0,0 km/h (0 Bft) - - 5,3 C 4,8 C 0,0 km/h (0 Bft)
_ Max-Zeit 02:45 23:55 23:55 11:00 02:00 - - 11:55 13:35 07:00
Maximum _ 11,4 C 95 % 1021,5 hPa 1,4 l/m 8,4 km/h
S (2 Bft)
- - 8,6 C 12,3 C 19,6 km/h
SO (3 Bft)
Durchschnitt _ 8,1 C 90 % 1019,2 hPa #2,7 l/m 2,1 km/h (1 Bft) S - 6,5 C 7,9 C 2,7 km/h (1 Bft)